| time (UTC) | temp F | wind direction | speed MPH | gust MPH | rain 1hr in | rain 24hr in | rain mn in | humidity % | barometer mb |
| 20260904195512 | 67 | 306 | 2.0 | 4.0 | 0.00 | 0.05 | 0.04 | 58 | 1013.9 |
| 20260904195003 | 66 | 13 | 1.0 | 4.0 | 0.00 | 0.05 | 0.04 | 61 | 1013.9 |
| 20260904194504 | 65 | 99 | 1.0 | 4.0 | 0.00 | 0.05 | 0.04 | 60 | 1014.0 |
| 20260904194005 | 65 | 94 | 0.0 | 4.0 | 0.00 | 0.05 | 0.04 | 62 | 1014.0 |
| 20260904193504 | 65 | 75 | 1.0 | 4.0 | 0.00 | 0.05 | 0.04 | 61 | 1014.1 |
| 20260904193009 | 65 | 64 | 1.0 | 4.0 | 0.00 | 0.05 | 0.04 | 62 | 1014.1 |
| 20260904192505 | 65 | 70 | 0.0 | 4.0 | 0.00 | 0.05 | 0.04 | 62 | 1014.1 |
| 20260904192005 | 66 | 96 | 2.0 | 5.0 | 0.00 | 0.05 | 0.04 | 62 | 1014.1 |
| 20260904191511 | 65 | 86 | 0.0 | 5.0 | 0.00 | 0.05 | 0.04 | 63 | 1014.1 |
| 20260904191007 | 66 | 65 | 2.0 | 5.0 | 0.00 | 0.05 | 0.04 | 62 | 1014.2 |
| 20260904190509 | 66 | 100 | 0.0 | 6.0 | 0.00 | 0.05 | 0.04 | 62 | 1014.2 |
| 20260904190017 | 66 | 20 | 3.0 | 6.0 | 0.00 | 0.05 | 0.04 | 63 | 1014.2 |
| 20260904185512 | 67 | 95 | 3.0 | 4.0 | 0.00 | 0.05 | 0.04 | 61 | 1014.2 |
| 20260904185010 | 66 | 117 | 0.0 | 4.0 | 0.00 | 0.06 | 0.04 | 62 | 1014.2 |
| 20260904184527 | 65 | 223 | 2.0 | 4.0 | 0.00 | 0.06 | 0.04 | 63 | 1014.2 |
| 20260904184013 | 65 | 326 | 1.0 | 3.0 | 0.00 | 0.06 | 0.04 | 63 | 1014.1 |
| 20260904183516 | 65 | 290 | 0.0 | 3.0 | 0.00 | 0.06 | 0.04 | 63 | 1014.1 |
| 20260904183004 | 65 | 289 | 0.0 | 1.0 | 0.00 | 0.06 | 0.04 | 64 | 1014.1 |
| 20260904182503 | 64 | 289 | 0.0 | 4.0 | 0.00 | 0.06 | 0.04 | 64 | 1014.1 |
| 20260904182010 | 64 | 246 | 0.0 | 4.0 | 0.00 | 0.06 | 0.04 | 64 | 1014.2 |
| 20260904181506 | 64 | 178 | 0.0 | 3.0 | 0.00 | 0.06 | 0.04 | 65 | 1014.1 |
| 20260904181008 | 64 | 101 | 0.0 | 0.0 | 0.00 | 0.06 | 0.04 | 66 | 1014.1 |
| 20260904180507 | 64 | 144 | 0.0 | 3.0 | 0.00 | 0.06 | 0.04 | 66 | 1014.1 |
| 20260904180011 | 64 | 89 | 0.0 | 3.0 | 0.00 | 0.06 | 0.04 | 65 | 1014.1 |
| 20260904175509 | 64 | 68 | 0.0 | 3.0 | 0.00 | 0.06 | 0.04 | 67 | 1014.1 |
| 20260904175010 | 64 | 110 | 0.0 | 3.0 | 0.00 | 0.06 | 0.04 | 65 | 1014.1 |
| 20260904174516 | 63 | 161 | 1.0 | 3.0 | 0.00 | 0.06 | 0.04 | 70 | 1014.1 |
| 20260904174014 | 62 | 100 | 0.0 | 3.0 | 0.00 | 0.06 | 0.04 | 71 | 1014.0 |
| 20260904173512 | 62 | 39 | 1.0 | 3.0 | 0.00 | 0.06 | 0.04 | 73 | 1014.0 |
| 20260904173036 | 62 | 77 | 0.0 | 3.0 | 0.00 | 0.06 | 0.04 | 76 | 1013.9 |
| 20260904172512 | 62 | 72 | 0.0 | 3.0 | 0.00 | 0.06 | 0.04 | 75 | 1014.0 |
| 20260904172017 | 61 | 151 | 0.0 | 3.0 | 0.00 | 0.06 | 0.04 | 78 | 1014.0 |
| 20260904171528 | 60 | 78 | 1.0 | 4.0 | 0.00 | 0.06 | 0.04 | 78 | 1014.0 |
| 20260904171003 | 60 | 166 | 2.0 | 5.0 | 0.00 | 0.06 | 0.04 | 81 | 1014.0 |
| 20260904170509 | 60 | 150 | 2.0 | 5.0 | 0.00 | 0.06 | 0.04 | 81 | 1014.0 |
| 20260904170013 | 59 | 169 | 0.0 | 2.0 | 0.00 | 0.06 | 0.04 | 83 | 1013.9 |
| 20260904165506 | 59 | 150 | 0.0 | 4.0 | 0.00 | 0.06 | 0.04 | 84 | 1013.9 |
| 20260904165008 | 59 | 140 | 1.0 | 4.0 | 0.00 | 0.06 | 0.04 | 83 | 1013.9 |
| 20260904164516 | 58 | 209 | 0.0 | 1.0 | 0.01 | 0.06 | 0.04 | 84 | 1013.9 |
| 20260904164009 | 58 | 109 | 0.0 | 1.0 | 0.01 | 0.06 | 0.04 | 85 | 1013.8 |
| 20260904163508 | 57 | 80 | 0.0 | 3.0 | 0.01 | 0.06 | 0.04 | 86 | 1013.7 |
| 20260904163019 | 57 | 79 | 0.0 | 3.0 | 0.01 | 0.06 | 0.04 | 85 | 1013.7 |
| 20260904162517 | 57 | 174 | 0.0 | 3.0 | 0.01 | 0.06 | 0.04 | 86 | 1013.7 |
| 20260904162014 | 57 | 87 | 0.0 | 3.0 | 0.01 | 0.06 | 0.04 | 86 | 1013.7 |
| 20260904161530 | 56 | 200 | 0.0 | 2.0 | 0.01 | 0.06 | 0.04 | 86 | 1013.6 |
| 20260904161016 | 56 | 122 | 0.0 | 2.0 | 0.01 | 0.06 | 0.04 | 87 | 1013.6 |
| 20260904160516 | 56 | 171 | 0.0 | 2.0 | 0.01 | 0.06 | 0.04 | 87 | 1013.7 |
| 20260904160030 | 56 | 121 | 1.0 | 2.0 | 0.01 | 0.06 | 0.04 | 87 | 1013.7 |
| 20260904155520 | 56 | 119 | 0.0 | 0.0 | 0.01 | 0.06 | 0.04 | 87 | 1013.8 |
| 20260904155005 | 56 | 89 | 0.0 | 0.0 | 0.01 | 0.07 | 0.04 | 87 | 1013.7 |
| 20260904154514 | 56 | 147 | 0.0 | 0.0 | 0.00 | 0.07 | 0.03 | 87 | 1013.8 |
| 20260904154008 | 55 | 157 | 0.0 | 0.0 | 0.00 | 0.10 | 0.03 | 87 | 1013.8 |
| 20260904153508 | 55 | 75 | 0.0 | 0.0 | 0.00 | 0.10 | 0.03 | 88 | 1013.8 |
| 20260904153015 | 55 | 94 | 0.0 | 0.0 | 0.00 | 0.10 | 0.03 | 88 | 1013.7 |
| 20260904152510 | 55 | 79 | 0.0 | 0.0 | 0.00 | 0.11 | 0.03 | 89 | 1013.6 |
| 20260904152010 | 55 | 75 | 0.0 | 0.0 | 0.00 | 0.11 | 0.03 | 89 | 1013.6 |
| 20260904151523 | 54 | 201 | 0.0 | 0.0 | 0.00 | 0.11 | 0.03 | 89 | 1013.6 |
| 20260904151012 | 54 | 201 | 0.0 | 0.0 | 0.00 | 0.11 | 0.03 | 89 | 1013.6 |
| 20260904150517 | 54 | 307 | 0.0 | 1.0 | 0.00 | 0.11 | 0.03 | 90 | 1013.5 |
| 20260904150034 | 54 | 290 | 0.0 | 3.0 | 0.00 | 0.12 | 0.03 | 90 | 1013.4 |
| 20260904145516 | 54 | 289 | 0.0 | 3.0 | 0.00 | 0.12 | 0.03 | 90 | 1013.3 |
| 20260904145015 | 54 | 248 | 1.0 | 3.0 | 0.00 | 0.12 | 0.03 | 90 | 1013.2 |
| 20260904144539 | 53 | 139 | 0.0 | 2.0 | 0.00 | 0.12 | 0.03 | 90 | 1013.1 |
| 20260904144022 | 53 | 107 | 0.0 | 2.0 | 0.00 | 0.13 | 0.03 | 90 | 1013.0 |
| 20260904143517 | 53 | 110 | 1.0 | 2.0 | 0.00 | 0.13 | 0.03 | 90 | 1013.0 |
| 20260904143036 | 53 | 165 | 0.0 | 2.0 | 0.00 | 0.14 | 0.03 | 91 | 1013.0 |
| 20260904142511 | 53 | 144 | 0.0 | 2.0 | 0.00 | 0.14 | 0.03 | 91 | 1013.0 |
| 20260904142009 | 53 | 139 | 0.0 | 0.0 | 0.00 | 0.14 | 0.03 | 91 | 1012.9 |
| 20260904141530 | 53 | 112 | 0.0 | 0.0 | 0.00 | 0.15 | 0.03 | 91 | 1012.9 |
| 20260904141011 | 53 | 127 | 0.0 | 0.0 | 0.00 | 0.15 | 0.03 | 91 | 1012.9 |
| 20260904140512 | 53 | 150 | 0.0 | 0.0 | 0.00 | 0.15 | 0.03 | 91 | 1012.9 |
| 20260904140044 | 53 | 160 | 0.0 | 0.0 | 0.00 | 0.15 | 0.03 | 91 | 1012.9 |
| 20260904135516 | 53 | 156 | 0.0 | 0.0 | 0.00 | 0.15 | 0.03 | 91 | 1012.9 |
| 20260904135015 | 53 | 176 | 0.0 | 0.0 | 0.00 | 0.15 | 0.03 | 90 | 1012.9 |
| 20260904134529 | 53 | 110 | 0.0 | 0.0 | 0.00 | 0.15 | 0.03 | 91 | 1012.8 |
| 20260904134013 | 53 | 169 | 0.0 | 0.0 | 0.00 | 0.15 | 0.03 | 90 | 1012.7 |
| 20260904133518 | 53 | 123 | 0.0 | 0.0 | 0.00 | 0.16 | 0.03 | 91 | 1012.7 |
| 20260904133033 | 53 | 133 | 0.0 | 0.0 | 0.00 | 0.17 | 0.03 | 90 | 1012.7 |
| 20260904132520 | 53 | 155 | 0.0 | 0.0 | 0.00 | 0.18 | 0.03 | 91 | 1012.7 |
| 20260904132021 | 53 | 122 | 0.0 | 0.0 | 0.00 | 0.18 | 0.03 | 90 | 1012.6 |
| 20260904131529 | 53 | 89 | 0.0 | 0.0 | 0.00 | 0.18 | 0.03 | 91 | 1012.6 |
| 20260904131019 | 53 | 70 | 0.0 | 0.0 | 0.00 | 0.18 | 0.03 | 91 | 1012.7 |
| 20260904130517 | 53 | 226 | 0.0 | 0.0 | 0.00 | 0.18 | 0.03 | 90 | 1012.7 |
| 20260904130019 | 53 | 166 | 0.0 | 0.0 | 0.00 | 0.19 | 0.03 | 90 | 1012.6 |
| 20260904125512 | 53 | 166 | 0.0 | 0.0 | 0.00 | 0.19 | 0.03 | 90 | 1012.5 |
| 20260904125012 | 53 | 166 | 0.0 | 0.0 | 0.01 | 0.19 | 0.03 | 90 | 1012.4 |
| 20260904124526 | 53 | 166 | 0.0 | 0.0 | 0.01 | 0.19 | 0.03 | 90 | 1012.4 |
| 20260904124014 | 53 | 166 | 0.0 | 0.0 | 0.01 | 0.19 | 0.03 | 90 | 1012.3 |
| 20260904123514 | 53 | 100 | 0.0 | 0.0 | 0.01 | 0.19 | 0.03 | 90 | 1012.2 |
| 20260904123030 | 53 | 95 | 0.0 | 0.0 | 0.02 | 0.19 | 0.03 | 90 | 1012.1 |
| 20260904122514 | 53 | 86 | 0.0 | 0.0 | 0.02 | 0.19 | 0.03 | 90 | 1012.1 |
| 20260904122015 | 53 | 122 | 0.0 | 0.0 | 0.02 | 0.19 | 0.03 | 90 | 1012.1 |
| 20260904121508 | 53 | 91 | 0.0 | 0.0 | 0.02 | 0.19 | 0.03 | 90 | 1011.9 |
| 20260904121009 | 53 | 119 | 0.0 | 0.0 | 0.02 | 0.19 | 0.03 | 90 | 1011.9 |
| 20260904120507 | 53 | 120 | 0.0 | 0.0 | 0.02 | 0.19 | 0.03 | 89 | 1011.9 |
| 20260904120017 | 53 | 119 | 0.0 | 0.0 | 0.02 | 0.19 | 0.03 | 90 | 1011.9 |
| 20260904115509 | 53 | 128 | 0.0 | 0.0 | 0.03 | 0.19 | 0.03 | 90 | 1011.9 |
| 20260904115012 | 53 | 107 | 0.0 | 0.0 | 0.02 | 0.18 | 0.02 | 90 | 1011.8 |
| 20260904114525 | 53 | 94 | 0.0 | 0.0 | 0.02 | 0.18 | 0.02 | 90 | 1011.9 |
| 20260904114015 | 53 | 121 | 0.0 | 0.0 | 0.02 | 0.18 | 0.02 | 90 | 1011.9 |
| 20260904113514 | 53 | 120 | 0.0 | 0.0 | 0.02 | 0.18 | 0.02 | 90 | 1011.8 |
| 20260904113032 | 53 | 120 | 0.0 | 0.0 | 0.01 | 0.17 | 0.01 | 90 | 1011.7 |
| 20260904112513 | 53 | 120 | 0.0 | 0.0 | 0.01 | 0.17 | 0.01 | 90 | 1011.7 |
| 20260904112016 | 53 | 136 | 0.0 | 0.0 | 0.01 | 0.17 | 0.01 | 90 | 1011.7 |
| 20260904111529 | 53 | 136 | 0.0 | 0.0 | 0.01 | 0.17 | 0.01 | 90 | 1011.7 |
| 20260904111017 | 53 | 136 | 0.0 | 0.0 | 0.01 | 0.17 | 0.01 | 90 | 1011.7 |
| 20260904110517 | 53 | 136 | 0.0 | 0.0 | 0.01 | 0.17 | 0.01 | 90 | 1011.6 |
| 20260904110031 | 53 | 136 | 0.0 | 0.0 | 0.01 | 0.17 | 0.01 | 90 | 1011.7 |
| 20260904105509 | 53 | 172 | 0.0 | 0.0 | 0.00 | 0.16 | 0.00 | 90 | 1011.7 |
| 20260904105008 | 53 | 172 | 0.0 | 0.0 | 0.00 | 0.16 | 0.00 | 90 | 1011.8 |
| 20260904104517 | 53 | 172 | 0.0 | 0.0 | 0.00 | 0.16 | 0.00 | 90 | 1011.7 |
| 20260904104012 | 53 | 172 | 0.0 | 0.0 | 0.00 | 0.16 | 0.00 | 90 | 1011.7 |
| 20260904103513 | 53 | 172 | 0.0 | 0.0 | 0.00 | 0.16 | 0.00 | 90 | 1011.6 |
| 20260904103024 | 53 | 172 | 0.0 | 0.0 | 0.00 | 0.16 | 0.00 | 90 | 1011.6 |
| 20260904102514 | 53 | 172 | 0.0 | 0.0 | 0.00 | 0.16 | 0.00 | 90 | 1011.5 |
| 20260904102014 | 53 | 172 | 0.0 | 0.0 | 0.00 | 0.16 | 0.00 | 89 | 1011.5 |
| 20260904101527 | 53 | 172 | 0.0 | 0.0 | 0.00 | 0.16 | 0.00 | 89 | 1011.5 |
| 20260904101015 | 53 | 172 | 0.0 | 0.0 | 0.00 | 0.16 | 0.00 | 89 | 1011.4 |
| 20260904100518 | 53 | 172 | 0.0 | 0.0 | 0.00 | 0.16 | 0.00 | 89 | 1011.4 |
| 20260904100032 | 53 | 207 | 0.0 | 0.0 | 0.00 | 0.16 | 0.00 | 89 | 1011.4 |
| 20260904095519 | 53 | 99 | 0.0 | 0.0 | 0.00 | 0.16 | 0.00 | 89 | 1011.4 |
| 20260904095015 | 53 | 99 | 0.0 | 0.0 | 0.00 | 0.16 | 0.00 | 89 | 1011.4 |
| 20260904094541 | 54 | 99 | 0.0 | 0.0 | 0.00 | 0.16 | 0.00 | 89 | 1011.4 |
| 20260904094019 | 54 | 99 | 0.0 | 0.0 | 0.00 | 0.16 | 0.00 | 89 | 1011.3 |
| 20260904093512 | 54 | 98 | 0.0 | 0.0 | 0.00 | 0.16 | 0.00 | 89 | 1011.4 |
| 20260904093019 | 54 | 68 | 0.0 | 0.0 | 0.00 | 0.16 | 0.00 | 89 | 1011.3 |
| 20260904092513 | 54 | 68 | 0.0 | 0.0 | 0.00 | 0.16 | 0.00 | 89 | 1011.4 |
| 20260904092015 | 54 | 66 | 0.0 | 0.0 | 0.00 | 0.16 | 0.00 | 89 | 1011.3 |
| 20260904091504 | 54 | 99 | 0.0 | 0.0 | 0.00 | 0.16 | 0.00 | 90 | 1011.3 |
| 20260904091007 | 54 | 155 | 0.0 | 0.0 | 0.00 | 0.16 | 0.00 | 90 | 1011.2 |
| 20260904090503 | 54 | 128 | 0.0 | 0.0 | 0.00 | 0.16 | 0.00 | 90 | 1011.3 |
| 20260904090007 | 54 | 119 | 0.0 | 1.0 | 0.00 | 0.16 | 0.00 | 90 | 1011.3 |
| 20260904085508 | 54 | 119 | 0.0 | 1.0 | 0.00 | 0.16 | 0.00 | 90 | 1011.3 |
| 20260904085006 | 54 | 276 | 0.0 | 0.0 | 0.00 | 0.16 | 0.00 | 90 | 1011.2 |
| 20260904084511 | 54 | 316 | 0.0 | 0.0 | 0.00 | 0.16 | 0.00 | 89 | 1011.3 |
| 20260904084007 | 54 | 316 | 0.0 | 0.0 | 0.00 | 0.16 | 0.00 | 89 | 1011.3 |
| 20260904083507 | 54 | 316 | 0.0 | 0.0 | 0.00 | 0.16 | 0.00 | 89 | 1011.3 |
| 20260904083016 | 54 | 316 | 0.0 | 0.0 | 0.00 | 0.16 | 0.00 | 89 | 1011.3 |
| 20260904082511 | 55 | 316 | 0.0 | 0.0 | 0.00 | 0.16 | 0.00 | 88 | 1011.4 |
| 20260904082013 | 55 | 316 | 0.0 | 0.0 | 0.00 | 0.16 | 0.00 | 88 | 1011.4 |
| 20260904081522 | 55 | 323 | 0.0 | 0.0 | 0.00 | 0.16 | 0.00 | 88 | 1011.3 |
| 20260904081013 | 55 | 323 | 0.0 | 0.0 | 0.00 | 0.16 | 0.00 | 88 | 1011.3 |
| 20260904080514 | 55 | 99 | 0.0 | 0.0 | 0.00 | 0.16 | 0.00 | 88 | 1011.3 |
| 20260904080026 | 55 | 98 | 0.0 | 0.0 | 0.00 | 0.16 | 0.00 | 88 | 1011.3 |
| 20260904075507 | 55 | 98 | 0.0 | 0.0 | 0.00 | 0.16 | 0.00 | 88 | 1011.3 |
| 20260904075003 | 55 | 98 | 0.0 | 0.0 | 0.00 | 0.16 | 0.00 | 87 | 1011.3 |
| 20260904074506 | 55 | 98 | 0.0 | 0.0 | 0.00 | 0.16 | 0.00 | 87 | 1011.3 |
| 20260904074003 | 55 | 98 | 0.0 | 0.0 | 0.00 | 0.17 | 0.00 | 87 | 1011.3 |
| 20260904073511 | 55 | 98 | 0.0 | 1.0 | 0.00 | 0.18 | 0.00 | 87 | 1011.3 |
| 20260904073012 | 55 | 98 | 0.0 | 1.0 | 0.00 | 0.18 | 0.00 | 87 | 1011.3 |
| 20260904072508 | 55 | 102 | 0.0 | 1.0 | 0.00 | 0.18 | 0.00 | 87 | 1011.2 |
| 20260904072010 | 55 | 107 | 0.0 | 1.0 | 0.00 | 0.18 | 0.00 | 88 | 1011.2 |
| 20260904071516 | 55 | 93 | 0.0 | 1.0 | 0.00 | 0.19 | 0.00 | 88 | 1011.2 |
| 20260904071014 | 55 | 121 | 0.0 | 0.0 | 0.00 | 0.19 | 0.00 | 88 | 1011.2 |
| 20260904070515 | 55 | 117 | 0.0 | 1.0 | 0.00 | 0.19 | 0.00 | 88 | 1011.2 |
| 20260904070024 | 55 | 118 | 0.0 | 1.0 | 0.00 | 0.19 | 0.00 | 88 | 1011.2 |
| 20260904065518 | 55 | 124 | 0.0 | 1.0 | 0.00 | 0.19 | 0.19 | 88 | 1011.2 |
| 20260904065013 | 55 | 97 | 0.0 | 1.0 | 0.00 | 0.19 | 0.19 | 88 | 1011.2 |
| 20260904064537 | 55 | 97 | 0.0 | 1.0 | 0.00 | 0.19 | 0.19 | 88 | 1011.1 |
| 20260904064015 | 55 | 101 | 0.0 | 1.0 | 0.00 | 0.19 | 0.19 | 88 | 1011.1 |
| 20260904063506 | 55 | 121 | 0.0 | 2.0 | 0.00 | 0.19 | 0.19 | 88 | 1011.2 |
| 20260904063012 | 55 | 139 | 0.0 | 2.0 | 0.00 | 0.19 | 0.19 | 88 | 1011.1 |
| 20260904062508 | 55 | 119 | 0.0 | 1.0 | 0.00 | 0.19 | 0.19 | 88 | 1011.0 |
| 20260904062008 | 55 | 91 | 0.0 | 1.0 | 0.00 | 0.19 | 0.19 | 87 | 1011.0 |
| 20260904061519 | 55 | 97 | 0.0 | 1.0 | 0.00 | 0.19 | 0.19 | 87 | 1011.0 |
| 20260904061011 | 55 | 97 | 0.0 | 1.0 | 0.00 | 0.19 | 0.19 | 87 | 1011.0 |
| 20260904060511 | 55 | 139 | 0.0 | 0.0 | 0.00 | 0.19 | 0.19 | 87 | 1011.0 |
| 20260904060027 | 55 | 117 | 0.0 | 2.0 | 0.00 | 0.19 | 0.19 | 87 | 1011.0 |
| 20260904055514 | 55 | 111 | 0.0 | 3.0 | 0.00 | 0.19 | 0.19 | 87 | 1011.1 |
| 20260904055013 | 55 | 79 | 0.0 | 3.0 | 0.00 | 0.19 | 0.19 | 87 | 1011.2 |
| 20260904054538 | 55 | 118 | 0.0 | 0.0 | 0.00 | 0.19 | 0.19 | 88 | 1011.2 |
| 20260904054014 | 55 | 141 | 0.0 | 0.0 | 0.00 | 0.19 | 0.19 | 88 | 1011.2 |
| 20260904053513 | 55 | 142 | 0.0 | 0.0 | 0.00 | 0.19 | 0.19 | 88 | 1011.2 |
| 20260904053033 | 55 | 142 | 0.0 | 0.0 | 0.00 | 0.19 | 0.19 | 88 | 1011.2 |
| 20260904052519 | 55 | 142 | 0.0 | 0.0 | 0.00 | 0.19 | 0.19 | 88 | 1011.3 |
| 20260904052016 | 55 | 142 | 0.0 | 0.0 | 0.00 | 0.19 | 0.19 | 87 | 1011.3 |
| 20260904051509 | 55 | 151 | 0.0 | 0.0 | 0.00 | 0.19 | 0.19 | 87 | 1011.3 |
| 20260904051006 | 55 | 151 | 0.0 | 0.0 | 0.00 | 0.19 | 0.19 | 87 | 1011.4 |
| 20260904050508 | 55 | 151 | 0.0 | 0.0 | 0.00 | 0.19 | 0.19 | 87 | 1011.4 |
| 20260904050018 | 55 | 150 | 0.0 | 0.0 | 0.00 | 0.19 | 0.19 | 86 | 1011.3 |
| 20260904045511 | 56 | 151 | 0.0 | 0.0 | 0.00 | 0.19 | 0.19 | 86 | 1011.4 |
| 20260904045016 | 56 | 207 | 0.0 | 0.0 | 0.00 | 0.19 | 0.19 | 86 | 1011.4 |
| 20260904044526 | 56 | 207 | 0.0 | 0.0 | 0.00 | 0.19 | 0.19 | 86 | 1011.4 |
| 20260904044013 | 56 | 207 | 0.0 | 0.0 | 0.00 | 0.19 | 0.19 | 86 | 1011.3 |
| 20260904043516 | 56 | 210 | 0.0 | 0.0 | 0.00 | 0.19 | 0.19 | 85 | 1011.3 |
| 20260904043028 | 56 | 102 | 0.0 | 1.0 | 0.00 | 0.19 | 0.19 | 85 | 1011.4 |
| 20260904042515 | 56 | 101 | 0.0 | 1.0 | 0.00 | 0.19 | 0.19 | 85 | 1011.4 |
| 20260904042014 | 56 | 102 | 0.0 | 0.0 | 0.00 | 0.19 | 0.19 | 85 | 1011.4 |
| 20260904041529 | 56 | 102 | 0.0 | 0.0 | 0.00 | 0.19 | 0.19 | 85 | 1011.3 |
| 20260904041017 | 56 | 99 | 0.0 | 0.0 | 0.00 | 0.19 | 0.19 | 85 | 1011.3 |
| 20260904040514 | 56 | 99 | 0.0 | 1.0 | 0.00 | 0.19 | 0.19 | 85 | 1011.4 |
| 20260904040040 | 56 | 104 | 0.0 | 1.0 | 0.00 | 0.19 | 0.19 | 85 | 1011.4 |
| 20260904035509 | 57 | 104 | 0.0 | 1.0 | 0.00 | 0.19 | 0.19 | 84 | 1011.4 |
| 20260904035014 | 57 | 96 | 0.0 | 1.0 | 0.00 | 0.19 | 0.19 | 84 | 1011.3 |
| 20260904034515 | 57 | 98 | 0.0 | 0.0 | 0.00 | 0.19 | 0.19 | 84 | 1011.2 |
| 20260904034012 | 57 | 98 | 0.0 | 0.0 | 0.00 | 0.19 | 0.19 | 84 | 1011.2 |
| 20260904033514 | 57 | 98 | 0.0 | 0.0 | 0.00 | 0.19 | 0.19 | 84 | 1011.1 |
| 20260904033022 | 57 | 96 | 0.0 | 0.0 | 0.00 | 0.19 | 0.19 | 84 | 1011.0 |
| 20260904032515 | 57 | 113 | 0.0 | 0.0 | 0.00 | 0.19 | 0.19 | 83 | 1011.0 |
| 20260904032015 | 57 | 114 | 0.0 | 0.0 | 0.00 | 0.19 | 0.19 | 83 | 1010.9 |
| 20260904031525 | 57 | 114 | 0.0 | 1.0 | 0.00 | 0.19 | 0.19 | 83 | 1010.9 |
| 20260904031017 | 57 | 113 | 0.0 | 2.0 | 0.00 | 0.19 | 0.19 | 82 | 1010.9 |
| 20260904030514 | 57 | 156 | 0.0 | 2.0 | 0.00 | 0.19 | 0.19 | 82 | 1010.8 |
| 20260904030031 | 57 | 139 | 0.0 | 2.0 | 0.00 | 0.19 | 0.19 | 82 | 1010.7 |
| 20260904025516 | 58 | 74 | 0.0 | 1.0 | 0.00 | 0.19 | 0.19 | 81 | 1010.6 |
| 20260904025017 | 58 | 139 | 0.0 | 1.0 | 0.00 | 0.19 | 0.19 | 81 | 1010.6 |
| 20260904024530 | 58 | 132 | 0.0 | 1.0 | 0.00 | 0.19 | 0.19 | 81 | 1010.6 |
| 20260904024017 | 58 | 105 | 0.0 | 1.0 | 0.00 | 0.19 | 0.19 | 80 | 1010.6 |
| 20260904023518 | 58 | 103 | 0.0 | 1.0 | 0.00 | 0.19 | 0.19 | 80 | 1010.5 |
| 20260904023020 | 58 | 144 | 0.0 | 0.0 | 0.00 | 0.19 | 0.19 | 80 | 1010.5 |
| 20260904022515 | 58 | 243 | 0.0 | 0.0 | 0.00 | 0.19 | 0.19 | 80 | 1010.5 |
| 20260904022011 | 58 | 160 | 0.0 | 0.0 | 0.00 | 0.19 | 0.19 | 79 | 1010.5 |
| 20260904021539 | 58 | 104 | 0.0 | 4.0 | 0.00 | 0.19 | 0.19 | 79 | 1010.5 |
| 20260904021012 | 58 | 135 | 1.0 | 4.0 | 0.00 | 0.19 | 0.19 | 78 | 1010.6 |
| 20260904020512 | 59 | 223 | 0.0 | 3.0 | 0.00 | 0.19 | 0.19 | 78 | 1010.6 |
| 20260904020029 | 59 | 110 | 0.0 | 2.0 | 0.00 | 0.19 | 0.19 | 79 | 1010.6 |
| 20260904015514 | 59 | 188 | 0.0 | 2.0 | 0.00 | 0.19 | 0.19 | 78 | 1010.6 |
| 20260904015016 | 59 | 79 | 0.0 | 3.0 | 0.00 | 0.19 | 0.19 | 78 | 1010.6 |
| 20260904014532 | 59 | 98 | 0.0 | 3.0 | 0.00 | 0.19 | 0.19 | 77 | 1010.7 |
| 20260904014018 | 59 | 154 | 1.0 | 3.0 | 0.00 | 0.19 | 0.19 | 77 | 1010.7 |
| 20260904013523 | 59 | 138 | 0.0 | 5.0 | 0.00 | 0.19 | 0.19 | 78 | 1010.8 |
| 20260904013045 | 59 | 233 | 1.0 | 5.0 | 0.00 | 0.19 | 0.19 | 77 | 1010.8 |
| 20260904012518 | 59 | 132 | 2.0 | 4.0 | 0.00 | 0.19 | 0.19 | 77 | 1010.8 |
| 20260904012020 | 59 | 257 | 0.0 | 3.0 | 0.00 | 0.19 | 0.19 | 78 | 1010.8 |
| 20260904011535 | 59 | 231 | 0.0 | 4.0 | 0.00 | 0.19 | 0.19 | 78 | 1010.7 |
| 20260904011011 | 59 | 193 | 1.0 | 5.0 | 0.00 | 0.19 | 0.19 | 78 | 1010.7 |
| 20260904010511 | 60 | 215 | 3.0 | 5.0 | 0.00 | 0.19 | 0.19 | 77 | 1010.7 |
| 20260904010031 | 60 | 213 | 0.0 | 2.0 | 0.00 | 0.19 | 0.19 | 73 | 1010.6 |
| 20260904005513 | 60 | 321 | 0.0 | 2.0 | 0.00 | 0.19 | 0.19 | 72 | 1010.7 |
| 20260904005016 | 60 | 177 | 0.0 | 0.0 | 0.00 | 0.19 | 0.19 | 72 | 1010.7 |
| 20260904004529 | 60 | 288 | 0.0 | 1.0 | 0.00 | 0.20 | 0.19 | 73 | 1010.7 |
| 20260904004015 | 60 | 287 | 0.0 | 2.0 | 0.00 | 0.20 | 0.19 | 73 | 1010.6 |
| 20260904003515 | 60 | 249 | 0.0 | 4.0 | 0.00 | 0.20 | 0.19 | 73 | 1010.6 |
| 20260904003032 | 60 | 285 | 1.0 | 4.0 | 0.00 | 0.20 | 0.19 | 73 | 1010.6 |
| 20260904002519 | 60 | 260 | 0.0 | 4.0 | 0.00 | 0.20 | 0.19 | 73 | 1010.6 |
| 20260904002020 | 60 | 271 | 1.0 | 4.0 | 0.01 | 0.20 | 0.19 | 75 | 1010.8 |
| 20260904001507 | 60 | 297 | 1.0 | 6.0 | 0.01 | 0.20 | 0.19 | 75 | 1010.9 |
| 20260904001006 | 59 | 297 | 1.0 | 6.0 | 0.01 | 0.20 | 0.19 | 77 | 1011.0 |
| 20260904000503 | 59 | 293 | 0.0 | 4.0 | 0.01 | 0.20 | 0.19 | 79 | 1011.0 |
| 20260904000005 | 59 | 292 | 1.0 | 3.0 | 0.01 | 0.20 | 0.19 | 78 | 1010.9 |
| 20260903235503 | 58 | 311 | 1.0 | 3.0 | 0.01 | 0.20 | 0.19 | 78 | 1010.8 |
| 20260903235003 | 58 | 309 | 0.0 | 1.0 | 0.01 | 0.21 | 0.19 | 79 | 1010.7 |
| 20260903234506 | 58 | 307 | 0.0 | 1.0 | 0.01 | 0.21 | 0.19 | 79 | 1010.8 |
| 20260903234003 | 58 | 269 | 0.0 | 1.0 | 0.01 | 0.21 | 0.19 | 80 | 1010.9 |
| 20260903233504 | 58 | 244 | 0.0 | 1.0 | 0.01 | 0.21 | 0.19 | 80 | 1010.8 |
| 20260903233014 | 57 | 224 | 0.0 | 5.0 | 0.01 | 0.21 | 0.19 | 79 | 1010.9 |
| 20260903232505 | 58 | 311 | 0.0 | 5.0 | 0.01 | 0.21 | 0.19 | 79 | 1011.0 |
| 20260903232007 | 58 | 300 | 0.0 | 4.0 | 0.00 | 0.20 | 0.18 | 79 | 1011.1 |
| 20260903231508 | 58 | 293 | 1.0 | 9.0 | 0.00 | 0.20 | 0.18 | 76 | 1011.2 |
| 20260903231005 | 59 | 333 | 3.0 | 9.0 | 0.00 | 0.20 | 0.18 | 75 | 1011.4 |
| 20260903230503 | 59 | 302 | 2.0 | 6.0 | 0.00 | 0.20 | 0.18 | 73 | 1011.4 |
| 20260903230010 | 59 | 302 | 0.0 | 9.0 | 0.00 | 0.20 | 0.18 | 74 | 1011.3 |
| 20260903225506 | 60 | 297 | 2.0 | 10.0 | 0.00 | 0.20 | 0.18 | 72 | 1011.3 |
| 20260903225007 | 60 | 287 | 2.0 | 10.0 | 0.00 | 0.20 | 0.18 | 69 | 1011.4 |
| 20260903224505 | 61 | 339 | 3.0 | 11.0 | 0.00 | 0.20 | 0.18 | 69 | 1011.3 |
| 20260903224003 | 62 | 11 | 4.0 | 11.0 | 0.00 | 0.20 | 0.18 | 68 | 1011.2 |
| 20260903223503 | 62 | 292 | 0.0 | 6.0 | 0.00 | 0.20 | 0.18 | 68 | 1011.0 |
| 20260903223006 | 62 | 298 | 3.0 | 6.0 | 0.00 | 0.20 | 0.18 | 67 | 1010.9 |
| 20260903222504 | 62 | 314 | 2.0 | 6.0 | 0.00 | 0.20 | 0.18 | 66 | 1011.0 |
| 20260903222005 | 63 | 289 | 1.0 | 6.0 | 0.00 | 0.20 | 0.18 | 66 | 1011.0 |
| 20260903221508 | 62 | 354 | 3.0 | 8.0 | 0.00 | 0.20 | 0.18 | 66 | 1011.0 |
| 20260903221006 | 63 | 317 | 3.0 | 47.0 | 0.00 | 0.20 | 0.18 | 65 | 1010.9 |
| 20260903220507 | 63 | 320 | 4.0 | 47.0 | 0.00 | 0.20 | 0.18 | 66 | 1011.0 |
| 20260903220010 | 63 | 282 | 1.0 | 8.0 | 0.00 | 0.20 | 0.18 | 67 | 1011.0 |
| 20260903215508 | 63 | 314 | 2.0 | 5.0 | 0.00 | 0.20 | 0.18 | 68 | 1010.9 |
| 20260903215007 | 62 | 297 | 2.0 | 10.0 | 0.00 | 0.20 | 0.18 | 67 | 1011.0 |
| 20260903214511 | 62 | 240 | 3.0 | 10.0 | 0.00 | 0.20 | 0.18 | 67 | 1011.1 |
| 20260903214009 | 63 | 227 | 2.0 | 8.0 | 0.00 | 0.21 | 0.18 | 68 | 1011.0 |
| 20260903213508 | 63 | 153 | 3.0 | 7.0 | 0.00 | 0.21 | 0.18 | 66 | 1011.1 |
| 20260903213011 | 63 | 243 | 1.0 | 8.0 | 0.00 | 0.21 | 0.18 | 67 | 1011.2 |
| 20260903212506 | 63 | 301 | 0.0 | 8.0 | 0.00 | 0.21 | 0.18 | 67 | 1011.2 |
| 20260903212004 | 63 | 43 | 4.0 | 8.0 | 0.00 | 0.21 | 0.18 | 66 | 1011.2 |
| 20260903211506 | 63 | 289 | 2.0 | 8.0 | 0.00 | 0.21 | 0.18 | 68 | 1011.2 |
| 20260903211007 | 62 | 312 | 3.0 | 8.0 | 0.00 | 0.21 | 0.18 | 69 | 1011.2 |
| 20260903210507 | 62 | 281 | 2.0 | 6.0 | 0.00 | 0.21 | 0.18 | 69 | 1011.2 |
| 20260903210013 | 62 | 291 | 1.0 | 10.0 | 0.00 | 0.21 | 0.18 | 69 | 1011.2 |
| 20260903205507 | 62 | 272 | 2.0 | 10.0 | 0.00 | 0.21 | 0.18 | 70 | 1011.1 |
| 20260903205007 | 62 | 290 | 4.0 | 10.0 | 0.00 | 0.21 | 0.18 | 69 | 1011.1 |
| 20260903204513 | 62 | 97 | 2.0 | 10.0 | 0.00 | 0.21 | 0.18 | 70 | 1011.0 |
| 20260903204008 | 62 | 255 | 5.0 | 9.0 | 0.00 | 0.21 | 0.18 | 69 | 1011.1 |
| 20260903203508 | 62 | 258 | 5.0 | 9.0 | 0.00 | 0.21 | 0.18 | 69 | 1011.0 |
| 20260903203016 | 62 | 293 | 2.0 | 9.0 | 0.00 | 0.22 | 0.18 | 70 | 1011.1 |
| 20260903202511 | 62 | 298 | 3.0 | 11.0 | 0.00 | 0.22 | 0.18 | 70 | 1011.0 |
| 20260903202009 | 62 | 225 | 4.0 | 11.0 | 0.00 | 0.22 | 0.18 | 72 | 1011.0 |
| 20260903201518 | 61 | 262 | 2.0 | 9.0 | 0.00 | 0.23 | 0.18 | 73 | 1011.1 |
| 20260903201009 | 61 | 224 | 2.0 | 13.0 | 0.00 | 0.23 | 0.18 | 72 | 1011.1 |
| 20260903200509 | 62 | 304 | 4.0 | 13.0 | 0.00 | 0.24 | 0.18 | 71 | 1011.2 |
| 20260903200009 | 62 | 323 | 3.0 | 12.0 | 0.00 | 0.25 | 0.18 | 70 | 1011.2 |